Flag for U.S.A. Weather past 2 weeks in Everett, Washington, U.S.A.

Now
42 °F

Fog.


Feels Like: 38 °F
Forecast: 41 / 49 °F
Wind: 7 mph from North

Location: Snohomish County Airport

Current Time: Jan 31, 2015 at 9:09:40 PM

Latest Report: Jan 31, 2015 at 7:53 PM


Visibility: 4 mi

Pressure: 30.16 "Hg

Humidity: 92%

Dew point: 40 °F

Location of EverettLocation

Historic Weather in Everett — Graph

°F

Everett temperature yesterday

Maximum temperature yesterday: 50 °F (at 2:53 PM)
Minimum temperature yesterday: 36 °F (at 7:53 AM)
Average temperature yesterday: 42 °F

Past Weeks' High & Low Weather Summary

 TemperatureHumidityPressure
High63 °F (Jan 25, 1:53 PM)100% (Jan 26, 12:53 AM)30.46 "Hg (Jan 26, 12:53 AM)
Low35 °F (Jan 21, 2:53 AM)47% (Jan 25, 1:53 PM)29.57 "Hg (Jan 17, 11:53 PM)
Average46 °F84%30.22 "Hg
* Reported Jan 16 7:53 PM — Jan 31 7:53 PM, Everett, Weather by CustomWeather, © 2014

Note: Actual official high and low records may vary slightly from our data, if they occured in-between our weather recording intervals... More about our weather records

Advertising

Everett weather history for previous 24 hours

 ConditionsComfort  
Time TempWeatherWind HumidityBarometerVisibility
7:53 PM
Jan 31
42 °FFog.7 mph92%30.16 "Hg4 mi
6:59 PM42 °FFog.3 mph92%30.16 "Hg4 mi
5:53 PM41 °FFog.5 mph96%30.19 "Hg2 mi
4:53 PM41 °FFog.3 mph93%30.19 "Hg2 mi
3:53 PM41 °FFog.5 mph93%30.18 "Hg1 mi
2:53 PM40 °FFog.3 mph97%30.18 "Hg1 mi
2:02 PM40 °FFog.5 mph97%30.18 "Hg1 mi
1:53 PM40 °FFog.3 mph97%30.20 "Hg0 mi
12:53 PM39 °FFog.6 mph96%30.22 "Hg0 mi
11:53 AM39 °FFog.5 mph96%30.23 "Hg0 mi
11:02 AM38 °FFog.5 mph97%30.23 "Hg0 mi
10:53 AM38 °FFog.6 mph97%30.26 "Hg0 mi
9:53 AM38 °FFog.6 mph97%30.24 "Hg0 mi
8:53 AM37 °FFog.7 mph96%30.25 "Hg0 mi
7:53 AM37 °FFog.6 mph96%30.25 "Hg0 mi
6:53 AM37 °FFog.5 mph100%30.24 "Hg0 mi
5:53 AM37 °FFog.3 mph96%30.26 "Hg0 mi
4:53 AM37 °FFog.6 mph100%30.26 "Hg0 mi
3:53 AM38 °FFog.3 mph97%30.25 "Hg0 mi
2:53 AM38 °FFog.6 mph97%30.26 "Hg0 mi
1:53 AM38 °FFog.3 mph97%30.27 "Hg0 mi
12:53 AM37 °FFog.3 mph96%30.26 "Hg0 mi
11:53 PM
Jan 30
39 °FClear.3 mph93%30.26 "Hg7 mi
10:53 PM37 °FClear.No wind96%30.26 "Hg7 mi
10:04 PM39 °FFog.No wind96%30.25 "Hg0 mi
9:53 PM39 °FFog.3 mph96%30.27 "Hg0 mi
Weather by CustomWeather, © 2014

See weather overviewHow to use our weather pages